This is the latest recevied weather packets stored in our database for station/object WV8BRW. If no packets are shown the sender has not sent any weather packets the latest 10 day(s).
| Time | Temp. | Humidity | Pressure | Rain* | Wind** | Luminosity | Snow |
|---|---|---|---|---|---|---|---|
| 1778004204 | 23.89° C | 62% | 1009.5 hPa | 0 mm | - | 370 W/m² | - |
| 1778003901 | 23.33° C | 56% | 1009.6 hPa | 0 mm | - | 305 W/m² | - |
| 1778003597 | 23.33° C | 58% | 1009.6 hPa | 0 mm | - | 275 W/m² | - |
| 1778003294 | 22.78° C | 56% | 1009.6 hPa | 0 mm | - | 245 W/m² | - |
| 1778002991 | 22.78° C | 54% | 1009.8 hPa | 0 mm | - | 260 W/m² | - |
| 1778002687 | 22.78° C | 58% | 1009.9 hPa | 0 mm | - | 249 W/m² | - |
| 1778002384 | 22.78° C | 55% | 1009.8 hPa | 0 mm | - | 231 W/m² | - |
| 1778002081 | 22.78° C | 53% | 1009.8 hPa | 0 mm | - | 227 W/m² | - |
| 1778001778 | 23.33° C | 54% | 1009.9 hPa | 0 mm | - | 229 W/m² | - |
| 1778001473 | 23.33° C | 57% | 1010 hPa | 0 mm | - | 224 W/m² | - |
| 1778001170 | 23.33° C | 56% | 1009.9 hPa | 0 mm | - | 268 W/m² | - |
| 1778000866 | 23.33° C | 54% | 1009.8 hPa | 0 mm | - | 272 W/m² | - |
| 1778000564 | 23.33° C | 57% | 1009.9 hPa | 0 mm | - | 263 W/m² | - |
| 1777999955 | 23.89° C | 59% | 1009.9 hPa | 0 mm | - | 309 W/m² | - |
| 1777999650 | 23.89° C | 55% | 1009.9 hPa | 0 mm | - | 282 W/m² | - |
| 1777999348 | 23.89° C | 55% | 1010 hPa | 0 mm | - | 305 W/m² | - |
| 1777999046 | 23.89° C | 55% | 1009.9 hPa | 0 mm | - | 362 W/m² | - |
| 1777998744 | 23.89° C | 57% | 1009.8 hPa | 0 mm | - | 350 W/m² | - |
| 1777998441 | 23.89° C | 54% | 1009.9 hPa | 0 mm | - | 353 W/m² | - |
| 1777998138 | 23.89° C | 60% | 1010 hPa | 0 mm | - | 523 W/m² | - |
| 1777997835 | 23.89° C | 60% | 1010.1 hPa | 0 mm | - | 448 W/m² | - |
| 1777997533 | 23.33° C | 54% | 1010 hPa | 0 mm | - | 462 W/m² | - |
| 1777997230 | 23.89° C | 56% | 1010.2 hPa | 0 mm | - | 439 W/m² | - |
| 1777996927 | 23.89° C | 58% | 1010.3 hPa | 0 mm | - | 374 W/m² | - |
| 1777996624 | 23.33° C | 58% | 1010.2 hPa | 0 mm | - | 434 W/m² | - |
* Rain latest hour (hover to see other rain measurements)
** Current wind speed in m/s (hover to see current wind gust speed)